This is the latest recevied weather packets stored in our database for station/object N3WMC. If no packets are shown the sender has not sent any weather packets the latest 10 day(s).
| Time | Temp. | Humidity | Pressure | Rain* | Wind** | Luminosity | Snow |
|---|---|---|---|---|---|---|---|
| 1787487056 | 17.78° C | 95% | 1013.2 hPa | 0 mm | - | 123 W/m² | - |
| 1787486754 | 17.78° C | 96% | 1013.3 hPa | 0 mm | - | 154 W/m² | - |
| 1787486449 | 17.78° C | 96% | 1013.3 hPa | 0 mm | - | 85 W/m² | - |
| 1787486144 | 17.78° C | 96% | 1013 hPa | 0 mm | - | 89 W/m² | - |
| 1787485839 | 17.78° C | 97% | 1013 hPa | 0 mm | - | 68 W/m² | - |
| 1787485535 | 17.78° C | 97% | 1013.2 hPa | 0 mm | - | 63 W/m² | - |
| 1787485230 | 17.22° C | 97% | 1012.9 hPa | 0 mm | - | 33 W/m² | - |
| 1787484925 | 17.78° C | 97% | 1013 hPa | 0 mm | - | 35 W/m² | - |
| 1787484623 | 17.22° C | 97% | 1012.8 hPa | 0 mm | - | 21 W/m² | - |
| 1787484318 | 17.22° C | 98% | 1012.9 hPa | 0 mm | - | 17 W/m² | - |
| 1787484014 | 17.22° C | 98% | 1013 hPa | 0 mm | - | 25 W/m² | - |
| 1787483710 | 17.22° C | 98% | 1012.9 hPa | 0 mm | - | 13 W/m² | - |
| 1787483406 | 17.22° C | 98% | 1012.9 hPa | 0 mm | - | 16 W/m² | - |
| 1787483103 | 17.22° C | 99% | 1013 hPa | 0 mm | - | 7 W/m² | - |
| 1787482803 | 17.22° C | 99% | 1012.9 hPa | 0 mm | - | 5 W/m² | - |
| 1787482499 | 17.22° C | 99% | 1012.9 hPa | 0 mm | - | 6 W/m² | - |
| 1787482195 | 17.22° C | 99% | 1012.6 hPa | 0 mm | - | 6 W/m² | - |
| 1787481895 | 17.22° C | 99% | 1012.6 hPa | 0 mm | - | 4 W/m² | - |
| 1787481589 | 17.22° C | 99% | 1012.6 hPa | 0 mm | - | 1 W/m² | - |
| 1787481288 | 17.22° C | 99% | 1012.5 hPa | 0 mm | - | 1 W/m² | - |
| 1787480983 | 17.22° C | 99% | 1012.5 hPa | 0 mm | - | 1 W/m² | - |
| 1787480679 | 17.22° C | 98% | 1012.4 hPa | 0 mm | - | 0 W/m² | - |
| 1787480376 | 17.22° C | 99% | 1012.4 hPa | 0 mm | - | 0 W/m² | - |
| 1787480071 | 17.22° C | 98% | 1012.4 hPa | 0 mm | - | 0 W/m² | - |
| 1787479768 | 17.22° C | 98% | 1012.2 hPa | 0 mm | - | 0 W/m² | - |
* Rain latest hour (hover to see other rain measurements)
** Current wind speed in m/s (hover to see current wind gust speed)